Мукры

Туркменистан     37°35′43″N   65°43′40″E
В апреле 2022 года жителям России запретили посещать сайт meteo.paraplan.net по решению Генеральной прокуратуры. Аудитория сайта уменьшилась в 10 раз. Владельцы сайта не видят смысла в поддержке погодного сервера в таких условиях. Сайт будет закрыт в октябре.
темп.,
°C
ветер,
м/с
пор.,
м/с
влажн.,
%
обл.,
%
осадки,
мм/ч
давл.,
гПа
погр.,
м
4 октября, вт
вт423:00+19ссз33220 0.0 101712
02:00+18ссв33253 0.0 101611
05:00+16в12290 0.0 101611
08:00+19юв24260 0.0 1018127
11:00+25всв12180 0.0 1018809
14:00+29ссв32140 0.0 10161540
17:00+29ссз54140 0.0 10161824
20:00+23ссз44190 0.0 101723
5 октября, ср
ср523:00+21с44200 0.0 101832
02:00+19ссз44200 0.0 101715
05:00+18сз44210 0.0 101817
08:00+19зсз45200 0.0 1020131
11:00+25зсз44130 0.0 1019758
14:00+29сз4490 0.0 10171588
17:00+28сз5590 0.0 10171525
20:00+22сз55120 0.0 101832
6 октября, чт
чт623:00+18сз55140 0.0 101731
02:00+16з44150 0.0 101724
05:00+13з44200 0.0 101825
08:00+13юз23200 0.0 1020106
11:00+20ююз22130 0.0 1019648
14:00+24зюз2280 0.0 10171138
17:00+25зюз2280 0.0 10171002
20:00+17юз11130 0.0 101811
7 октября, пт
пт723:00+16ююз11150 0.0 101811
02:00+14ю11160 0.0 101811
05:00+13юв22170 0.0 101811
08:00+18юв22120 0.0 101943
11:00+25юв3470 0.0 1019793
14:00+28в2360 0.0 10171456
17:00+28с4470 0.0 10161006
20:00+22сз44100 0.0 101817
8 октября, сб
сб823:00+20сз44120 0.0 101820
02:00+18ссз33150 0.0 101811
05:00+15св12170 0.0 101911
08:00+19в22140 0.0 102054
11:00+25всв2290 0.0 1021654
14:00+29ссз3470 0.0 10181767
17:00+29ссз5660 0.0 10181198
20:00+22сз5590 0.0 101927